Left ArrowRight Arrow

Hourly Observations for July 7, 2018

Temp ( °F °C ) Dew Point ( °F °C ) Humidity (%) Winds ( mph kmh ) Pressure ( in mb ) Visibility ( mi km ) Precip ( " mm )
12:53 am 00:53 Clear 75 23.9 67 19.4 76 76 S 18 30 30.14 1021 10 16 0.00 0.00
1:53 am 01:53 Clear 74 23.3 67 19.4 79 79 S 17 28 30.13 1020 10 16 0.00 0.00
2:53 am 02:53 Clear 73 22.8 67 19.4 81 81 S 17 28 30.12 1020 10 16 0.00 0.00
3:53 am 03:53 Clear 73 22.8 68 20 84 84 S 17 28 30.11 1020 10 16 0.00 0.00
4:53 am 04:53 Clear 73 22.8 68 20 84 84 S 17 28 30.09 1019 10 16 0.00 0.00
5:53 am 05:53 Clear 73 22.8 67 19.4 81 81 S 16 26 30.08 1019 10 16 0.00 0.00
6:53 am 06:53 Sunny 73 22.8 67 19.4 81 81 S 17 28 30.07 1018 10 16 0.00 0.00
7:53 am 07:53 Sunny 76 24.4 67 19.4 74 74 S 20 31 30.07 1018 10 16 0.00 0.00
8:53 am 08:53 Sunny 78 25.6 67 19.4 69 69 SSW 20 31 30.07 1018 10 16 0.00 0.00
9:53 am 09:53 Sunny 82 27.8 68 20 63 63 S 22 35 30.05 1018 10 16 0.00 0.00
10:53 am 10:53 Sunny 85 29.4 69 20.6 59 59 S 23 37 30.04 1017 10 16 0.00 0.00
11:53 am 11:53 Sunny 88 31.1 69 20.6 54 54 S 22 35 30.02 1017 10 16 0.00 0.00
12:53 pm 12:53 Sunny 90 32.2 67 19.4 47 47 SSW 24 39 30.01 1016 10 16 0.00 0.00
1:53 pm 13:53 Sunny 92 33.3 67 19.4 44 44 SSW 18 30 30.00 1016 10 16 0.00 0.00
2:53 pm 14:53 Sunny 93 33.9 67 19.4 42 42 SSW 23 37 29.98 1015 10 16 0.00 0.00
3:53 pm 15:53 Sunny 94 34.4 68 20 43 43 S 20 31 29.97 1015 10 16 0.00 0.00
4:53 pm 16:53 Sunny 93 33.9 66 18.9 41 41 S 22 35 29.96 1015 10 16 0.00 0.00
5:53 pm 17:53 Sunny 92 33.3 67 19.4 44 44 S 21 33 29.95 1014 10 16 0.00 0.00
6:53 pm 18:53 Sunny 91 32.8 67 19.4 45 45 S 16 26 29.94 1014 10 16 0.00 0.00
7:53 pm 19:53 Sunny 89 31.7 67 19.4 48 48 S 16 26 29.93 1014 10 16 0.00 0.00
8:53 pm 20:53 Sunny 85 29.4 67 19.4 55 55 S 14 22 29.93 1014 10 16 0.00 0.00
9:53 pm 21:53 Clear 83 28.3 68 20 61 61 S 20 31 29.94 1014 10 16 0.00 0.00
10:53 pm 22:53 Clear 82 27.8 67 19.4 60 60 S 18 30 29.95 1014 10 16 0.00 0.00
11:53 pm 23:53 Clear 81 27.2 66 18.9 61 61 S 18 30 29.96 1014 10 16 0.00 0.00

Powered by Vaisala Xweather